Probability
0 0 0 0 0 0 0 0 0 0 0 0 0 0 0 0 0 0 0 0 0 0 1 3 6 6 3 2 3 4 4 4 2 1 1 2 3 3 3 3 3 2 1 1 3 4 5 5 4
0 0 0 0 0 0 0 0 0 0 0 0 0 0 0 0 0 0 0 0 0 0 0 2 5 6 4 3 3 3 4 4 3 1 1 2 3 3 3 3 3 2 1 1 3 4 5 5 4
0 0 0 0 0 0 0 0 0 0 0 0 0 0 0 0 0 0 0 0 0 0 0 2 5 6 6 5 4 3 3 4 3 2 1 2 3 4 3 3 3 3 1 1 2 4 6 6 4
0 0 0 0 0 0 0 0 0 0 0 0 0 0 0 0 0 0 0 0 0 0 1 3 6 7 6 6 4 3 3 2 3 2 2 3 4 4 4 3 3 3 2 1 2 3 5 5 4
0 0 0 0 0 0 0 0 0 0 0 0 0 0 0 0 0 0 0 0 0 0 1 2 4 5 5 5 4 3 2 1 1 2 2 3 3 4 4 4 3 3 2 1 1 3 4 3 3
0 0 0 0 0 0 0 0 0 0 0 0 1 1 0 0 0 0 0 0 0 1 1 1 3 4 4 3 3 4 3 1 1 1 2 3 3 3 4 4 4 4 3 1 2 2 3 3 3
0 0 0 0 0 0 0 0 0 0 0 1 1 1 0 0 0 0 0 0 1 2 2 2 3 3 4 4 4 4 3 1 0 1 2 2 2 2 3 4 5 4 3 1 2 2 3 3 3
0 0 0 0 0 0 0 0 0 0 1 2 2 1 0 0 0 1 1 0 1 2 3 3 3 4 5 5 4 4 3 1 0 1 1 0 1 1 1 2 3 3 2 1 1 2 3 3 3
0 0 0 0 0 0 0 0 0 0 1 3 3 2 0 0 0 1 2 1 0 1 2 3 3 3 4 4 4 4 3 1 1 2 1 1 0 0 0 1 1 1 1 1 1 1 2 3 3
0 0 0 0 0 0 0 0 0 0 2 3 2 1 0 0 0 1 1 1 0 0 1 2 2 1 2 2 3 3 3 3 3 3 3 2 1 0 0 0 0 0 0 0 0 0 1 2 1
0 0 0 0 0 0 0 0 0 0 1 2 1 0 0 0 0 0 0 0 0 0 1 1 1 0 0 1 1 2 3 3 3 3 3 3 1 1 0 0 0 0 0 0 0 0 0 0 0
0 0 0 0 0 0 0 0 0 0 0 0 0 0 0 0 0 0 0 0 0 0 1 0 0 0 0 0 0 1 1 2 3 3 3 3 2 1 0 0 0 0 0 0 0 0 0 0 0
0 0 0 0 0 0 0 0 0 0 0 0 0 0 0 0 0 0 0 1 0 0 0 0 0 0 0 0 0 0 0 1 2 1 1 2 2 1 0 0 0 0 0 0 0 0 0 0 0
0 0 0 0 0 0 0 0 0 0 0 0 0 0 0 0 0 0 0 1 0 0 0 0 1 0 0 0 0 0 0 0 0 0 0 1 1 0 0 0 0 0 0 0 0 0 0 0 0
0 0 0 0 0 0 0 0 0 0 0 0 0 0 0 0 0 0 0 1 0 0 0 0 0 0 0 0 0 0 0 0 0 0 0 0 0 0 0 0 0 0 0 0 0 0 0 0 0
0 0 0 0 0 0 0 0 0 0 0 0 0 0 0 0 0 0 0 0 0 0 0 0 0 1 1 1 0 0 0 0 0 0 0 0 0 0 0 0 0 0 0 0 0 0 0 0 0
0 0 0 0 0 0 0 0 0 0 0 0 0 0 0 0 0 0 0 0 0 0 0 0 0 1 2 2 1 0 0 0 0 0 0 0 0 0 0 0 0 0 0 0 0 0 0 0 0
0 0 0 0 0 0 0 0 0 0 0 0 0 0 0 0 0 0 0 0 0 0 0 0 1 1 2 2 2 1 1 0 1 1 1 0 0 0 0 0 0 0 0 0 0 0 0 0 0
0 0 0 0 0 0 0 0 0 0 0 0 0 0 0 0 0 0 0 0 0 0 0 0 1 2 1 1 1 2 2 1 1 2 1 0 0 0 0 0 0 0 0 0 0 0 0 0 0
0 0 0 0 0 0 0 0 0 0 0 0 0 0 0 0 0 0 0 0 0 0 0 0 1 1 1 0 1 3 3 3 2 2 2 1 0 0 0 0 0 0 0 0 0 0 0 0 0
0 0 0 0 0 0 0 0 0 0 0 0 0 0 0 0 0 0 0 0 0 0 0 0 0 0 0 0 2 3 3 3 3 3 2 1 0 0 0 0 0 0 0 0 0 0 0 0 0
0 0 0 0 0 0 0 0 0 0 0 0 0 0 0 0 0 0 0 0 0 0 0 0 0 0 0 0 1 2 3 3 3 3 1 0 0 0 0 0 0 0 0 0 0 0 0 0 0
0 0 0 0 0 0 0 0 0 0 0 0 0 0 0 0 0 0 0 0 0 0 0 0 0 0 0 0 0 1 1 3 3 3 1 0 0 0 0 0 0 0 0 0 0 0 0 0 0
0 0 0 0 0 0 0 0 0 0 0 0 0 0 0 0 0 0 0 0 0 0 0 0 0 0 0 0 0 0 1 2 3 3 2 1 0 0 0 0 0 0 0 0 0 0 0 0 0
0 0 0 0 0 0 0 0 0 0 0 0 0 0 0 0 0 0 0 0 0 0 0 1 1 2 1 1 0 0 1 2 3 3 3 2 1 1 0 0 0 0 0 0 0 0 0 0 0
0 0 0 0 0 0 0 0 0 0 0 0 0 0 0 0 0 0 0 0 0 0 0 1 2 3 2 1 0 0 0 1 2 3 3 3 1 1 0 0 0 0 0 0 0 0 0 0 0
0 0 0 0 0 0 0 0 0 0 0 0 0 0 0 0 0 0 0 0 0 0 1 2 3 2 1 0 0 0 0 0 1 3 3 3 2 1 0 0 0 0 0 0 0 0 0 0 0
0 0 0 0 0 0 0 0 0 0 0 0 0 0 0 0 0 0 0 0 0 0 1 2 2 1 0 0 0 0 0 0 1 2 3 3 3 2 1 0 0 0 0 0 0 0 0 0 0
0 0 0 0 0 0 0 0 0 0 0 0 0 0 0 0 0 0 0 0 0 0 0 1 1 0 0 0 0 0 0 0 0 1 3 3 3 2 1 0 0 0 0 0 0 0 0 0 0
0 0 0 0 0 0 0 0 0 0 0 0 0 0 0 0 0 0 0 0 0 0 0 0 0 0 0 0 0 0 0 0 0 1 2 3 3 2 1 0 0 0 0 0 0 0 0 0 0
Wind_Speed
8 5 2 4 7 5 1 3 1 1 2 2 4 8 8 6 3 5 2 1 3 3 2 4 7 7 8 8 8 8 8 9 9 9 10 10 10 10 10 10 10 10 10 10 10 10 11 11 11
4 3 5 6 6 2 3 2 1 1 3 4 5 6 7 6 4 5 1 1 4 4 3 3 7 8 8 9 8 8 8 8 8 9 9 10 10 10 10 10 10 10 9 10 10 10 10 10 10
4 2 5 5 4 4 3 2 3 1 3 3 5 5 5 4 3 2 1 3 4 4 4 4 7 8 8 9 9 8 7 7 7 8 9 9 10 10 9 9 9 9 9 9 9 10 10 10 10
3 5 5 5 2 3 3 3 2 2 3 4 5 5 4 3 1 2 3 4 5 4 4 4 7 8 8 8 8 9 8 6 7 7 8 9 9 10 9 9 9 9 9 9 9 9 9 9 9
4 5 5 2 2 2 2 2 2 2 2 3 4 5 3 3 3 6 5 5 6 4 4 4 8 8 8 8 9 9 9 8 8 8 8 8 8 9 9 8 8 8 8 8 8 8 8 8 8
4 5 4 3 3 2 1 1 2 2 2 3 5 5 2 1 4 4 5 5 5 4 4 4 7 8 8 8 9 9 9 9 9 8 8 8 8 8 8 8 8 7 7 7 7 7 7 7 8
4 4 4 4 3 2 2 1 2 3 3 1 4 6 3 0 2 4 5 5 5 5 4 4 4 5 7 8 9 9 10 9 9 9 8 8 8 8 8 8 8 8 7 7 7 7 7 7 8
4 5 2 2 4 3 1 2 2 3 3 2 4 7 4 3 3 5 5 5 5 4 4 4 4 4 4 4 8 9 10 10 9 9 9 9 8 8 8 7 8 8 7 6 6 7 6 7 7
4 5 3 4 4 3 0 2 2 3 5 4 3 3 3 6 6 6 5 4 4 4 3 3 3 4 4 3 6 7 8 8 8 7 9 7 4 4 5 7 8 8 8 7 6 6 6 7 7
4 3 4 3 3 3 1 3 2 3 3 3 4 4 5 6 6 6 4 3 2 2 2 3 3 3 3 3 3 3 4 4 4 4 4 3 3 3 5 6 8 8 8 8 7 7 6 5 3
3 4 3 1 1 2 3 2 1 5 2 4 5 6 6 6 5 5 3 2 2 2 2 2 2 3 3 2 2 2 2 2 3 4 4 3 3 3 3 2 4 4 5 4 5 4 3 2 2
3 0 1 0 1 2 2 2 2 2 3 3 6 8 7 6 5 5 4 2 1 2 1 1 2 2 3 2 2 2 2 2 2 3 3 2 2 2 2 2 2 2 2 3 3 2 3 3 3
2 1 2 2 4 3 4 3 2 1 1 3 6 6 6 6 4 3 3 3 2 2 1 1 2 2 2 2 2 2 2 2 2 2 2 3 2 2 2 2 2 2 2 2 2 2 2 3 3
2 2 2 2 2 1 3 0 2 3 2 4 6 5 5 5 4 3 2 3 3 2 2 1 2 2 2 2 2 1 1 1 1 2 2 2 2 1 1 2 2 2 2 2 2 2 2 2 2
3 3 3 1 1 1 4 2 3 4 3 4 5 4 4 4 3 4 4 3 3 2 2 2 2 2 2 2 1 1 1 1 1 2 2 2 2 1 1 1 2 2 2 3 2 2 2 2 2
3 3 0 3 1 1 4 5 4 3 4 4 4 3 3 3 3 3 3 3 2 2 2 1 2 2 2 2 1 1 1 1 1 1 2 2 2 2 1 1 2 2 2 2 2 2 2 2 2
2 1 2 3 1 1 3 5 4 3 5 4 4 4 3 2 1 1 2 3 3 3 2 2 2 2 1 1 1 1 1 1 1 1 1 2 2 2 1 1 2 2 2 2 2 2 1 2 2
4 3 3 4 3 1 2 5 4 3 4 5 4 3 3 3 3 2 2 2 2 2 2 2 1 2 2 1 1 1 2 1 1 1 1 2 2 2 2 1 2 2 2 2 2 2 2 1 1
3 3 3 4 2 1 4 6 6 4 3 4 4 4 4 4 2 1 1 2 2 2 1 2 1 1 1 1 1 1 1 1 1 1 1 2 2 2 2 1 2 2 1 2 2 1 2 2 2
1 2 2 3 1 1 3 6 6 5 6 6 7 6 5 3 1 1 1 1 2 2 2 2 2 1 1 1 0 0 0 0 0 1 1 2 2 2 1 1 1 1 1 2 2 2 1 1 2
2 3 3 2 2 2 2 5 4 3 3 3 4 5 5 5 4 2 1 1 1 1 2 1 1 1 0 1 1 1 1 1 1 1 1 2 2 1 1 1 0 1 1 1 1 1 1 1 2
3 3 3 2 1 2 1 5 6 4 3 4 4 4 4 4 4 3 2 1 1 1 1 1 1 1 0 1 1 2 1 0 1 1 1 1 2 2 1 1 1 1 1 1 1 1 1 0 1
3 0 1 1 2 1 1 3 8 2 5 6 5 5 4 4 4 4 4 3 2 1 1 1 1 1 1 1 1 1 1 1 0 0 0 1 1 1 2 1 1 1 1 1 1 1 1 1 1
2 4 5 5 4 2 4 5 8 5 7 5 3 3 3 3 4 3 2 2 1 0 1 1 1 0 0 1 1 2 2 1 0 0 1 1 1 1 2 2 1 1 1 2 2 1 2 1 1
4 5 4 4 3 7 2 4 9 6 4 5 4 4 3 3 3 3 2 2 1 1 1 1 1 0 0 0 0 1 2 2 2 1 1 1 1 2 2 2 2 2 2 2 2 1 2 2 1
2 5 6 5 5 5 2 6 8 4 3 2 1 1 1 2 2 3 4 3 3 2 1 1 1 1 1 0 1 0 1 1 1 2 2 2 2 2 2 2 2 2 2 2 1 1 2 2 2
4 3 4 4 1 3 6 6 7 2 3 2 1 1 1 1 2 2 3 3 3 3 3 2 2 1 1 1 1 1 1 1 1 2 1 2 2 2 1 2 2 2 2 2 1 1 2 2 2
2 5 4 4 3 4 6 5 5 4 3 2 2 2 2 1 1 1 2 2 2 2 2 2 2 2 2 1 1 1 1 1 1 1 1 2 2 1 2 2 2 2 2 2 2 2 2 2 2
2 2 3 3 4 4 4 8 4 4 2 2 3 2 2 2 2 2 2 1 1 1 1 1 1 1 1 1 1 1 1 1 1 1 1 2 2 1 2 2 2 2 2 2 2 3 3 3 3
3 4 5 4 4 4 3 8 3 2 1 1 2 2 2 2 2 1 1 1 1 1 1 1 1 1 1 1 1 1 1 1 1 2 2 2 2 2 2 2 2 2 2 2 3 3 3 3 3
Wind_Direction
336 340 60 58 58 57 221 264 223 42 54 50 64 83 92 81 90 130 162 56 84 79 46 33 38 49 51 53 55 58 57 56 55 54 53 53 53 53 56 60 63 63 62 61 61 59 59 57 54
337 355 54 61 89 110 262 262 183 194 157 130 71 73 77 77 69 99 103 60 87 80 52 36 44 49 48 48 50 54 58 60 58 55 53 52 51 53 56 59 61 61 62 61 60 57 57 55 52
335 52 78 76 111 172 205 218 180 126 70 97 78 53 77 88 88 113 130 102 80 67 45 34 52 53 49 48 47 47 52 59 61 59 56 53 50 51 54 55 57 58 57 58 60 58 56 51 48
49 49 58 81 157 223 202 204 171 110 50 54 97 74 63 29 113 126 115 101 88 67 50 42 55 56 52 48 45 43 42 54 68 64 58 55 52 51 53 52 53 54 54 54 56 56 54 49 45
61 78 76 82 218 251 235 188 132 95 83 61 94 99 78 359 81 104 99 92 95 75 55 49 55 55 51 48 45 43 43 56 66 64 57 54 52 51 54 51 51 51 51 51 50 49 51 48 44
59 72 104 183 211 235 265 180 125 89 91 74 94 104 114 15 89 99 98 98 100 90 68 55 52 50 47 46 46 45 47 54 58 56 53 50 49 50 51 49 48 48 47 47 47 45 45 44 41
102 104 152 171 181 229 235 123 114 121 96 89 121 114 134 187 122 112 103 98 90 83 70 51 45 46 43 42 44 44 46 49 50 48 45 44 43 48 51 47 46 42 41 43 42 44 40 39 36
120 109 133 175 175 219 233 71 67 104 117 61 99 131 167 198 145 109 91 79 77 71 66 53 39 34 31 37 43 42 44 45 42 40 36 35 36 37 42 42 44 40 36 35 38 38 36 34 31
89 87 174 198 181 204 154 85 41 46 83 51 50 114 148 139 126 109 89 65 63 61 53 53 47 36 27 37 42 44 43 41 40 36 33 31 24 23 31 31 38 37 32 28 32 32 34 31 28
87 140 205 213 176 161 106 99 123 78 73 67 48 58 107 122 123 124 125 120 94 69 48 48 52 42 34 38 35 37 38 34 33 28 26 26 24 25 30 24 28 28 24 19 21 25 26 26 20
121 168 197 275 141 124 105 84 86 121 138 176 166 156 142 136 135 138 144 144 149 133 80 55 56 52 48 42 39 37 32 30 30 28 26 24 27 27 24 22 15 16 17 11 6 12 15 21 21
119 143 158 71 55 82 113 116 78 121 201 187 164 157 150 152 162 160 157 158 139 111 86 67 70 62 55 50 44 46 39 33 31 24 29 33 31 27 15 18 4 9 2 359 0 357 12 23 24
115 138 35 64 63 81 89 97 120 206 185 125 133 141 153 159 162 161 158 149 131 124 102 80 81 71 60 55 44 46 36 33 27 26 26 33 41 28 15 7 6 3 1 357 353 355 15 26 22
140 103 63 53 65 65 111 85 106 221 147 119 135 156 165 167 168 161 155 153 151 151 140 107 90 73 68 56 47 47 40 34 38 31 25 32 40 29 23 14 7 0 356 349 346 359 8 27 26
85 72 14 339 116 159 108 352 228 207 151 142 156 168 169 175 170 175 178 172 174 164 145 127 108 80 78 73 51 45 42 46 39 30 26 31 41 37 29 26 10 352 351 356 358 14 16 25 25
61 74 339 284 152 164 137 239 244 193 155 173 180 183 183 198 190 185 169 160 160 151 144 134 99 92 85 84 79 56 49 57 41 33 24 26 35 37 35 31 6 346 354 3 6 15 15 12 13
46 165 225 278 239 150 165 232 245 208 174 188 195 191 183 182 189 182 161 155 156 157 153 136 129 123 108 89 85 71 70 68 49 39 33 23 33 34 39 29 1 356 6 9 3 2 6 7 4
207 210 218 233 248 158 210 245 250 235 199 198 199 197 192 196 214 196 159 145 145 145 144 132 122 123 112 89 77 60 50 41 42 38 29 28 26 30 32 35 10 9 13 10 4 356 4 11 356
179 188 231 249 242 193 229 250 250 242 222 217 211 208 211 220 228 187 154 144 131 124 124 122 114 137 114 97 96 69 4 342 357 17 30 31 24 24 33 31 20 16 13 357 359 1 7 10 6
200 218 254 291 310 216 261 269 252 228 219 214 209 211 214 227 257 245 214 167 163 165 164 144 143 168 165 165 182 154 153 266 310 354 17 19 20 10 21 41 22 9 9 10 5 16 4 344 4
241 204 219 242 341 6 353 301 266 254 229 226 215 206 207 202 202 211 228 236 195 177 184 149 150 147 166 122 93 68 55 34 13 357 352 352 2 358 10 36 24 1 9 327 327 354 15 314 330
248 233 199 181 105 276 149 281 272 255 265 251 231 217 216 211 201 201 204 231 211 203 173 121 122 118 103 123 141 144 146 196 280 284 297 327 348 345 354 1 351 330 320 300 289 330 318 270 294
211 289 123 141 140 315 238 223 279 264 254 255 241 229 226 214 198 200 201 206 213 194 152 124 111 124 129 130 159 155 164 205 223 345 297 319 324 320 324 324 319 317 305 288 289 306 295 274 271
116 52 45 48 70 276 224 192 271 238 230 249 245 235 225 216 200 197 195 176 166 131 94 105 121 107 148 139 163 160 163 188 140 333 282 297 297 293 302 313 308 304 295 281 271 269 274 267 291
77 85 33 357 350 254 236 209 249 247 242 229 232 237 225 211 196 192 189 189 193 197 164 126 150 176 267 74 285 197 184 185 196 219 234 251 268 275 278 300 290 289 284 277 271 264 277 259 264
174 143 157 200 232 277 286 238 254 262 287 286 258 232 213 202 203 205 203 198 200 209 196 180 186 217 229 222 283 246 196 193 216 228 240 246 249 252 260 277 285 288 289 295 279 265 268 265 261
145 177 164 138 182 273 268 280 296 288 324 342 356 18 274 236 229 224 218 206 203 206 209 201 197 207 223 220 256 268 229 227 231 236 237 248 259 268 261 270 279 292 293 285 282 275 274 269 254
148 148 112 131 176 256 281 267 255 267 279 284 285 284 283 278 278 263 242 229 223 215 213 206 202 207 220 221 228 270 266 250 242 242 248 263 272 275 258 265 274 284 288 283 277 276 276 273 264
145 151 143 148 174 186 259 267 236 228 248 260 272 280 265 262 255 259 261 257 238 220 198 206 211 211 218 228 246 252 270 269 261 256 256 266 270 262 265 269 271 274 274 278 274 273 277 271 272
196 188 157 169 226 203 217 266 282 227 278 291 297 298 287 282 281 273 264 260 246 237 235 232 236 228 241 233 241 262 272 272 263 269 276 278 273 257 252 258 265 270 267 261 257 269 278 271 268